| time (UTC) | temp F | wind direction | speed knots | gust knots | rain 1hr in | rain 24hr in | rain mn in | humidity % | barometer mb |
| 20260507123018 | 62 | 158 | 8.7 | 15.6 | 0.00 | 0.00 | 0.00 | 72 | 1013.9 |
| 20260507122016 | 62 | 148 | 8.7 | 15.6 | 0.00 | 0.00 | 0.00 | 72 | 1014.1 |
| 20260507121015 | 62 | 151 | 8.7 | 13.9 | 0.00 | 0.00 | 0.00 | 72 | 1014.2 |
| 20260507120017 | 62 | 152 | 6.1 | 11.3 | 0.00 | 0.00 | 0.00 | 72 | 1014.3 |
| 20260507115016 | 62 | 162 | 8.7 | 15.6 | 0.00 | 0.00 | 0.00 | 72 | 1014.2 |
| 20260507112016 | 62 | 149 | 6.1 | 12.2 | 0.00 | 0.00 | 0.00 | 71 | 1014.4 |
| 20260507110017 | 61 | 154 | 6.1 | 11.3 | 0.00 | 0.00 | 0.00 | 74 | 1014.6 |
| 20260507105016 | 61 | 152 | 7.0 | 13.0 | 0.00 | 0.00 | 0.00 | 74 | 1014.6 |
| 20260507104016 | 61 | 155 | 8.7 | 13.0 | 0.00 | 0.00 | 0.00 | 74 | 1014.8 |
| 20260507103019 | 61 | 158 | 7.8 | 13.0 | 0.00 | 0.00 | 0.00 | 76 | 1014.7 |
| 20260507100021 | 62 | 149 | 5.2 | 11.3 | 0.00 | 0.00 | 0.00 | 73 | 1014.7 |
| 20260507094014 | 62 | 149 | 5.2 | 9.6 | 0.00 | 0.00 | 0.00 | 73 | 1014.9 |
| 20260507093016 | 62 | 136 | 4.3 | 10.4 | 0.00 | 0.00 | 0.00 | 73 | 1014.8 |
| 20260507092016 | 62 | 152 | 4.3 | 10.4 | 0.00 | 0.00 | 0.00 | 73 | 1014.8 |
| 20260507091016 | 61 | 144 | 2.6 | 7.0 | 0.00 | 0.00 | 0.00 | 72 | 1014.8 |
| 20260507090015 | 62 | 81 | 0.9 | 3.5 | 0.00 | 0.00 | 0.00 | 72 | 1014.8 |
| 20260507085016 | 62 | 111 | 2.6 | 5.2 | 0.00 | 0.00 | 0.00 | 72 | 1014.9 |
| 20260507083016 | 61 | 115 | 4.3 | 8.7 | 0.00 | 0.00 | 0.00 | 72 | 1014.6 |
| 20260507082016 | 60 | 100 | 3.5 | 8.7 | 0.00 | 0.00 | 0.00 | 75 | 1014.5 |
| 20260507081016 | 60 | 76 | 3.5 | 8.7 | 0.00 | 0.00 | 0.00 | 76 | 1014.4 |
| 20260507080017 | 60 | 106 | 3.5 | 7.8 | 0.00 | 0.00 | 0.00 | 77 | 1014.6 |
| 20260507075016 | 59 | 79 | 2.6 | 7.0 | 0.00 | 0.00 | 0.00 | 79 | 1014.7 |
| 20260507074015 | 58 | 100 | 4.3 | 7.8 | 0.00 | 0.00 | 0.00 | 78 | 1014.7 |
| 20260507073016 | 59 | 87 | 5.2 | 7.8 | 0.00 | 0.00 | 0.00 | 77 | 1014.9 |
| 20260507072016 | 59 | 97 | 3.5 | 7.8 | 0.00 | 0.00 | 0.00 | 76 | 1014.9 |
| 20260507071019 | 59 | 101 | 3.5 | 7.8 | 0.00 | 0.00 | 0.00 | 76 | 1014.8 |
| 20260507070018 | 59 | 116 | 2.6 | 7.8 | 0.00 | 0.00 | 0.00 | 76 | 1014.8 |
| 20260507065016 | 58 | 104 | 3.5 | 7.0 | 0.00 | 0.00 | 0.00 | 75 | 1014.8 |
| 20260507064016 | 59 | 111 | 3.5 | 7.0 | 0.00 | 0.00 | 0.00 | 73 | 1014.6 |
| 20260507063016 | 60 | 104 | 2.6 | 6.1 | 0.00 | 0.00 | 0.00 | 73 | 1014.4 |
| 20260507062016 | 59 | 72 | 1.7 | 5.2 | 0.00 | 0.00 | 0.00 | 72 | 1014.4 |
| 20260507061017 | 58 | 350 | 0.0 | 1.7 | 0.00 | 0.00 | 0.00 | 77 | 1014.2 |
| 20260507060021 | 56 | 350 | 0.0 | 0.9 | 0.00 | 0.00 | 0.00 | 79 | 1014.0 |
| 20260507055022 | 55 | 350 | 1.7 | 2.6 | 0.00 | 0.00 | 0.00 | 80 | 1014.0 |
| 20260507054017 | 54 | 349 | 1.7 | 2.6 | 0.00 | 0.00 | 0.00 | 80 | 1013.7 |
| 20260507053016 | 53 | 349 | 1.7 | 3.5 | 0.00 | 0.00 | 0.00 | 80 | 1013.8 |
| 20260507052017 | 53 | 349 | 2.6 | 4.3 | 0.00 | 0.00 | 0.00 | 80 | 1013.6 |
| 20260507051015 | 52 | 349 | 2.6 | 3.5 | 0.00 | 0.00 | 0.00 | 81 | 1013.6 |
| 20260507050019 | 52 | 349 | 2.6 | 3.5 | 0.00 | 0.00 | 0.00 | 81 | 1013.7 |
| 20260507045016 | 52 | 349 | 2.6 | 3.5 | 0.00 | 0.00 | 0.00 | 82 | 1013.5 |
| 20260507043017 | 52 | 349 | 2.6 | 4.3 | 0.00 | 0.00 | 0.00 | 83 | 1013.6 |
| 20260507041016 | 52 | 349 | 3.5 | 4.3 | 0.00 | 0.00 | 0.00 | 83 | 1013.7 |
| 20260507040023 | 53 | 349 | 2.6 | 3.5 | 0.00 | 0.00 | 0.00 | 84 | 1013.7 |
| 20260507034017 | 53 | 350 | 3.5 | 4.3 | 0.00 | 0.00 | 0.00 | 83 | 1013.6 |
| 20260507033016 | 53 | 350 | 2.6 | 4.3 | 0.00 | 0.00 | 0.00 | 83 | 1013.6 |
| 20260507031016 | 52 | 350 | 2.6 | 3.5 | 0.00 | 0.00 | 0.00 | 83 | 1013.5 |
| 20260507024017 | 53 | 349 | 2.6 | 4.3 | 0.00 | 0.00 | 0.00 | 82 | 1013.6 |
| 20260507023017 | 53 | 350 | 2.6 | 4.3 | 0.00 | 0.00 | 0.00 | 83 | 1013.6 |
| 20260507022016 | 53 | 349 | 2.6 | 4.3 | 0.00 | 0.00 | 0.00 | 83 | 1013.5 |
| 20260507021018 | 53 | 350 | 1.7 | 3.5 | 0.00 | 0.00 | 0.00 | 83 | 1013.5 |
| 20260507020018 | 53 | 349 | 2.6 | 4.3 | 0.00 | 0.00 | 0.00 | 83 | 1013.4 |
| 20260507015016 | 53 | 350 | 3.5 | 4.3 | 0.00 | 0.00 | 0.00 | 83 | 1013.4 |
| 20260507014016 | 53 | 349 | 2.6 | 3.5 | 0.00 | 0.00 | 0.00 | 83 | 1013.4 |
| 20260507013015 | 53 | 349 | 2.6 | 3.5 | 0.00 | 0.00 | 0.00 | 82 | 1013.4 |
| 20260507012019 | 53 | 349 | 2.6 | 3.5 | 0.00 | 0.00 | 0.00 | 83 | 1013.5 |
| 20260507011016 | 54 | 349 | 2.6 | 3.5 | 0.00 | 0.00 | 0.00 | 83 | 1013.4 |
| 20260507010017 | 53 | 349 | 2.6 | 3.5 | 0.00 | 0.00 | 0.00 | 83 | 1013.4 |
| 20260507005015 | 53 | 350 | 2.6 | 4.3 | 0.00 | 0.00 | 0.00 | 83 | 1013.6 |
| 20260507004017 | 53 | 349 | 2.6 | 3.5 | 0.00 | 0.00 | 0.00 | 83 | 1013.9 |
| 20260507003016 | 53 | 349 | 3.5 | 4.3 | 0.00 | 0.00 | 0.00 | 82 | 1013.9 |
| 20260507002015 | 53 | 349 | 3.5 | 4.3 | 0.00 | 0.00 | 0.00 | 82 | 1013.9 |
| 20260507001017 | 53 | 349 | 2.6 | 4.3 | 0.00 | 0.00 | 0.00 | 82 | 1014.0 |
| 20260507000020 | 53 | 349 | 3.5 | 4.3 | 0.00 | 0.00 | 0.00 | 82 | 1013.9 |
| 20260506234016 | 53 | 349 | 2.6 | 4.3 | 0.00 | 0.00 | 0.00 | 82 | 1014.0 |
| 20260506233018 | 54 | 349 | 3.5 | 4.3 | 0.00 | 0.00 | 0.00 | 82 | 1013.9 |
| 20260506231016 | 54 | 350 | 2.6 | 4.3 | 0.00 | 0.00 | 0.00 | 81 | 1014.0 |
| 20260506230017 | 54 | 349 | 2.6 | 4.3 | 0.00 | 0.00 | 0.00 | 81 | 1014.0 |
| 20260506225016 | 54 | 349 | 3.5 | 5.2 | 0.00 | 0.00 | 0.00 | 81 | 1013.8 |
| 20260506224019 | 54 | 349 | 3.5 | 4.3 | 0.00 | 0.00 | 0.00 | 81 | 1013.9 |
| 20260506223016 | 54 | 349 | 3.5 | 4.3 | 0.00 | 0.00 | 0.00 | 81 | 1013.8 |
| 20260506222015 | 54 | 349 | 3.5 | 4.3 | 0.00 | 0.00 | 0.00 | 81 | 1013.7 |
| 20260506221016 | 54 | 349 | 3.5 | 4.3 | 0.00 | 0.00 | 0.00 | 81 | 1013.8 |
| 20260506220018 | 55 | 349 | 3.5 | 4.3 | 0.00 | 0.00 | 0.00 | 81 | 1013.7 |
| 20260506215016 | 55 | 350 | 3.5 | 4.3 | 0.00 | 0.00 | 0.00 | 81 | 1013.9 |
| 20260506214016 | 55 | 349 | 2.6 | 4.3 | 0.00 | 0.00 | 0.00 | 80 | 1013.8 |
| 20260506213015 | 55 | 350 | 3.5 | 4.3 | 0.00 | 0.00 | 0.00 | 80 | 1013.8 |
| 20260506212016 | 55 | 356 | 2.6 | 4.3 | 0.00 | 0.00 | 0.00 | 80 | 1013.7 |
| 20260506211015 | 56 | 16 | 2.6 | 4.3 | 0.00 | 0.00 | 0.00 | 79 | 1013.7 |
| 20260506205016 | 56 | 10 | 2.6 | 4.3 | 0.00 | 0.00 | 0.00 | 80 | 1013.7 |
| 20260506204015 | 56 | 349 | 2.6 | 3.5 | 0.00 | 0.00 | 0.00 | 80 | 1013.6 |
| 20260506203016 | 56 | 349 | 2.6 | 4.3 | 0.00 | 0.00 | 0.00 | 80 | 1013.3 |
| 20260506200015 | 56 | 354 | 1.7 | 3.5 | 0.00 | 0.00 | 0.00 | 79 | 1013.0 |
| 20260506195015 | 57 | 350 | 2.6 | 3.5 | 0.00 | 0.00 | 0.00 | 79 | 1012.8 |
| 20260506194015 | 57 | 345 | 1.7 | 3.5 | 0.00 | 0.00 | 0.00 | 79 | 1012.7 |
| 20260506193015 | 58 | 271 | 1.7 | 3.5 | 0.00 | 0.00 | 0.00 | 78 | 1012.4 |
| 20260506192014 | 59 | 169 | 0.9 | 4.3 | 0.00 | 0.00 | 0.00 | 77 | 1012.5 |
| 20260506190019 | 60 | 156 | 1.7 | 5.2 | 0.00 | 0.00 | 0.00 | 76 | 1012.3 |
| 20260506185015 | 60 | 196 | 1.7 | 6.1 | 0.00 | 0.00 | 0.00 | 76 | 1012.1 |
| 20260506184016 | 61 | 168 | 2.6 | 6.1 | 0.00 | 0.00 | 0.00 | 75 | 1011.8 |
| 20260506183015 | 62 | 175 | 1.7 | 3.5 | 0.00 | 0.00 | 0.00 | 73 | 1011.9 |
| 20260506182015 | 62 | 177 | 2.6 | 7.0 | 0.00 | 0.00 | 0.00 | 72 | 1011.8 |
| 20260506181015 | 62 | 190 | 4.3 | 8.7 | 0.00 | 0.00 | 0.00 | 70 | 1011.7 |
| 20260506175015 | 63 | 197 | 4.3 | 9.6 | 0.00 | 0.00 | 0.00 | 68 | 1011.4 |
| 20260506174015 | 63 | 194 | 6.1 | 13.0 | 0.00 | 0.00 | 0.00 | 66 | 1011.5 |
| 20260506173015 | 64 | 196 | 5.2 | 13.9 | 0.00 | 0.00 | 0.00 | 67 | 1011.4 |
| 20260506172015 | 64 | 194 | 7.0 | 13.0 | 0.00 | 0.00 | 0.00 | 64 | 1011.4 |
| 20260506171017 | 65 | 189 | 6.1 | 11.3 | 0.00 | 0.00 | 0.00 | 69 | 1011.4 |
| 20260506170016 | 65 | 182 | 6.1 | 12.2 | 0.00 | 0.00 | 0.00 | 66 | 1011.2 |
| 20260506164015 | 66 | 140 | 6.1 | 11.3 | 0.00 | 0.00 | 0.00 | 63 | 1011.1 |
| 20260506163016 | 67 | 150 | 7.0 | 10.4 | 0.00 | 0.00 | 0.00 | 63 | 1011.1 |
| 20260506162015 | 67 | 135 | 5.2 | 9.6 | 0.00 | 0.01 | 0.00 | 62 | 1011.1 |
| 20260506161015 | 66 | 146 | 5.2 | 10.4 | 0.00 | 0.02 | 0.00 | 63 | 1011.1 |
| 20260506160015 | 67 | 159 | 6.1 | 9.6 | 0.00 | 0.02 | 0.00 | 58 | 1011.1 |
| 20260506155014 | 67 | 130 | 4.3 | 7.8 | 0.00 | 0.02 | 0.00 | 60 | 1011.0 |
| 20260506154015 | 66 | 162 | 3.5 | 6.1 | 0.00 | 0.02 | 0.00 | 58 | 1011.0 |
| 20260506150015 | 66 | 161 | 3.5 | 9.6 | 0.00 | 0.02 | 0.00 | 58 | 1011.3 |
| 20260506145015 | 66 | 156 | 5.2 | 11.3 | 0.00 | 0.02 | 0.00 | 57 | 1011.3 |
| 20260506144015 | 65 | 131 | 3.5 | 7.0 | 0.00 | 0.02 | 0.00 | 59 | 1011.3 |
| 20260506143014 | 65 | 153 | 5.2 | 8.7 | 0.00 | 0.02 | 0.00 | 60 | 1011.5 |
| 20260506142015 | 66 | 161 | 6.1 | 11.3 | 0.00 | 0.02 | 0.00 | 60 | 1011.5 |
| 20260506141015 | 66 | 164 | 7.8 | 14.8 | 0.00 | 0.02 | 0.00 | 59 | 1011.6 |
| 20260506140016 | 66 | 166 | 7.8 | 13.0 | 0.00 | 0.02 | 0.00 | 60 | 1011.7 |
| 20260506135014 | 65 | 160 | 9.6 | 14.8 | 0.00 | 0.02 | 0.00 | 61 | 1011.8 |
| 20260506134015 | 66 | 143 | 7.8 | 14.8 | 0.00 | 0.02 | 0.00 | 62 | 1011.7 |
| 20260506133017 | 66 | 128 | 7.0 | 12.2 | 0.00 | 0.02 | 0.00 | 60 | 1011.7 |
| 20260506132015 | 66 | 138 | 7.0 | 18.2 | 0.00 | 0.02 | 0.00 | 60 | 1011.9 |
| 20260506131016 | 68 | 127 | 5.2 | 14.8 | 0.00 | 0.02 | 0.00 | 56 | 1011.6 |
| 20260506130016 | 67 | 339 | 3.5 | 7.8 | 0.00 | 0.02 | 0.00 | 52 | 1012.0 |
| 20260506125014 | 68 | 301 | 4.3 | 9.6 | 0.00 | 0.02 | 0.00 | 52 | 1012.2 |
| 20260506124014 | 67 | 239 | 6.1 | 13.0 | 0.00 | 0.02 | 0.00 | 53 | 1012.2 |